{"data":{"norad_id":56167,"epoch":"2026-09-21T22:11:22.346880Z","epoch_age_seconds":64057,"freshness":"FRESH","line1":"1 56167U 23050F   26264.92456420  .00000064  00000+0  46193-4 0  9993","line2":"2 56167  81.0078 338.9133 0007758  60.9454 299.2478 13.85174486175502","mean_motion":13.85174486,"eccentricity":0.0007758,"inclination_deg":81.0078,"raan_deg":338.9133,"arg_perigee_deg":60.9454,"mean_anomaly_deg":299.2478,"bstar":4.6193e-5,"rev_number":17550,"period_min":103.95802222421,"perigee_km":939.90890147611,"apogee_km":951.2723972969,"semimajor_km":7323.7276493865,"source":"CELESTRAK","updated_at":"2026-09-22T09:00:25.730467Z"}}